Skip Page Navigation
NASA JPL Caltech
NASA Logo - Jet Propulsion Laboratory + View the NASA Portal
+ Center for Near-Earth Object Studies
JPL Home Earth Solar System Stars & Galaxies Technology
JPL Solar System Dynamics
BODIES ORBITS EPHEMERIDES TOOLS PHYSICAL DATA DISCOVERY FAQ SITE MAP
IMPORTANT: The SSD Announcement email list is now available. Major changes are coming in the near future, including possible hostname and/or URL changes. To be notified of such changes, subscribe to this email list.

Please visit this page for more details.


JPL Small-Body Database Browser
Search: [ help ]  
295192 (2008 FX101)
Classification: Main-belt Asteroid          SPK-ID: 2295192
Ephemeris | Orbit Diagram | Orbital Elements | Mission Design | Physical Parameters | Discovery Circumstances | Close-Approach Data ]

[ show orbit diagram ]
Orbital Elements at Epoch 2459000.5 (2020-May-31.0) TDB
Reference: JPL 11 (heliocentric ecliptic J2000)
 Element Value Uncertainty (1-sigma)   Units 
e .1247477990635323 6.3832e-08  
a 3.094178905104938 4.3329e-08 au
q 2.708186896784287 2.0576e-07 au
i 6.593538044838938 5.8224e-06 deg
node 121.842755251795 8.2945e-05 deg
peri 155.9476579098658 9.2222e-05 deg
M 31.12007124620454 3.8853e-05 deg
tp 2458828.647980478491
(2019-Dec-11.14798048)
0.00021551 TDB
period 1988.000815881439
5.44
4.1758e-05
1.143e-07
d
yr
n .1810864447962429 3.8037e-09 deg/d
Q 3.48017091342559 4.8734e-08 au
  Orbit Determination Parameters
   # obs. used (total)      139  
   data-arc span      6344 days (17.37 yr)  
   first obs. used      2002-03-12  
   last obs. used      2019-07-25  
   planetary ephem.      DE431  
   SB-pert. ephem.      SB431-N16  
   condition code      0  
   norm. resid. RMS      .55531  
   source      ORB  
   producer      Otto Matic  
   solution date      2019-Sep-24 05:42:44  

Additional Information
 Earth MOID = 1.6934 au 
 Jupiter MOID = 1.66592 au 
 T_jup = 3.202 
[ show covariance matrix ]

Ephemeris | Orbit Diagram | Orbital Elements | Mission Design | Physical Parameters | Discovery Circumstances | Close-Approach Data ]

Physical Parameter Table
Parameter Symbol Value Units Sigma Reference Notes
absolute magnitude H 15.7   n/a MPO437319  

295192 (2008 FX101)          Discovered 2008-Mar-30 by Spacewatch at Kitt Peak
Reference: 20110912/Numbers.arcLast Updated: 2011-09-14

[ show close-approach data ]
Ephemeris | Orbit Diagram | Orbital Elements | Mission Design | Physical Parameters | Discovery Circumstances | Close-Approach Data ]
ABOUT SSD CREDITS/AWARDS PRIVACY/COPYRIGHT GLOSSARY LINKS
FirstGov 2020-Jun-03 04:53 UT
(server date/time)  
NASA Home Page
Site Manager:   Ryan S. Park
Webmaster  Alan B. Chamberlin